Home   Weather   Husum   Past weeks

Flag for Germany Past Weather in Husum, Schleswig-Holstein, Germany — Yesterday and Last 2 Weeks

Now
32 °F

Light freezing rain. Partly cloudy.


Feels Like: 24 °F
Forecast: 34 / 40 °F
Wind: 10 mph from Southwest

Location: Schleswig-Jagel

Current Time: Jan 18, 2017 at 5:30:52 pm

Latest Report: Jan 18, 2017 at 4:46 pm


Visibility: 4 mi

Pressure: 30.66 "Hg

Humidity: 87%

Dew Point: 28 °F

Location of HusumLocation

Past Weather in Husum — Graph

°F

Husum Temperature Yesterday

Maximum temperature yesterday: 34 °F (at 1:20 pm)
Minimum temperature yesterday: 19 °F (at 5:20 am)
Average temperature yesterday: 28 °F

High & Low Weather Summary for the Past Weeks

 TemperatureHumidityPressure
High46 °F (Jan 3, 6:20 pm)100% (Jan 7, 10:20 am)30.77 "Hg (Jan 7, 10:20 am)
Low12 °F (Jan 6, 8:20 am)59% (Jan 6, 3:20 pm)29.15 "Hg (Jan 13, 4:20 am)
Average33 °F86%29.99 "Hg
* Reported Jan 3 3:09 pm — Jan 18 3:20 pm, Husum, Weather by CustomWeather, © 2017

Note: Actual official high and low records may vary slightly from our data, if they occured in-between our weather recording intervals... More about our weather records

Advertising

Husum Weather History for the Previous 24 Hours

Scroll right to see more
 ConditionsComfort  
Time TempWeatherWind HumidityBarometerVisibility
3:20 pm
Wed, Jan 18
32 °FPartly sunny.13 mph80%30.66 "HgN/A
2:20 pm32 °FPartly sunny.13 mph87%30.66 "Hg6 mi
1:20 pm32 °FBroken clouds.13 mph87%30.66 "Hg5 mi
12:20 pm32 °FPartly sunny.12 mph80%30.69 "Hg4 mi
11:20 am32 °FPartly sunny.12 mph80%30.69 "Hg4 mi
10:20 am30 °FPartly sunny.9 mph93%30.69 "Hg4 mi
9:20 am30 °FPartly sunny.9 mph93%30.69 "Hg4 mi
8:20 am30 °FPassing clouds.9 mph93%30.66 "Hg4 mi
7:20 am30 °FPassing clouds.8 mph93%30.66 "Hg4 mi
6:20 am30 °FPassing clouds.9 mph93%30.66 "Hg4 mi
5:20 am30 °FChilly.7 mph93%30.66 "Hg4 mi
4:20 am30 °FChilly.7 mph93%30.66 "Hg4 mi
3:20 am30 °FChilly.7 mph93%30.66 "Hg3 mi
2:20 am30 °FChilly.9 mph93%30.66 "Hg3 mi
1:20 am30 °FChilly.10 mph100%30.66 "Hg2 mi
12:20 am30 °FChilly.8 mph93%30.69 "Hg3 mi
11:20 pm
Tue, Jan 17
30 °FChilly.5 mph93%30.69 "Hg5 mi
10:20 pm32 °FChilly.6 mph87%30.66 "HgN/A
9:45 pm32 °FPassing clouds.3 mph87%30.66 "HgN/A
9:20 pm32 °FPartly cloudy.3 mph87%30.66 "HgN/A
8:20 pm32 °FPassing clouds.6 mph87%30.66 "HgN/A
7:20 pm32 °FPassing clouds.5 mph87%30.66 "HgN/A
6:20 pm32 °FPassing clouds.3 mph87%30.66 "HgN/A
5:20 pm32 °FPassing clouds.5 mph87%30.66 "HgN/A
Weather by CustomWeather, © 2017

See weather overviewHow to use our weather pages